Flag for Germany Weather past 2 weeks in Lehrte, Lower Saxony, Germany

Now
81 °F

Partly sunny.


Feels Like: 81 °F
Forecast: 59 / 65 °F
Wind: 6 mph from South

Location: Hannover

Current Time: Jul 7, 2015 at 1:14:56 PM

Latest Report: Jul 7, 2015 at 1:00 PM


Visibility: 25 mi

Pressure: 29.85 "Hg

Humidity: 37%

Dew point: 52 °F

Location of LehrteLocation

Historic Weather in Lehrte — Graph

°F

Lehrte temperature yesterday

Maximum temperature yesterday: 74 °F (at 6:00 PM)
Minimum temperature yesterday: 61 °F (at 7:00 AM)
Average temperature yesterday: 68 °F

Past Weeks' High & Low Weather Summary

 TemperatureHumidityPressure
High97 °F (Jul 4, 4:00 PM)99% (Jun 23, 1:00 AM)30.28 "Hg (Jun 23, 1:00 AM)
Low49 °F (Jun 23, 2:00 AM)30% (Jul 2, 8:00 PM)29.66 "Hg (Jun 23, 1:00 AM)
Average68 °F67%30.08 "Hg
* Reported Jun 22 12:00 Noon — Jul 7 12:00 Noon, Lehrte, Weather by CustomWeather, © 2015

Note: Actual official high and low records may vary slightly from our data, if they occured in-between our weather recording intervals... More about our weather records

Advertising

Lehrte weather history for previous 24 hours

 ConditionsComfort  
Time TempWeatherWind HumidityBarometerVisibility
12:00 PM
Tue, Jul 7
78 °FScattered clouds.5 mph44%29.88 "Hg25 mi
10:00 AM75 °FPassing clouds.5 mph50%29.92 "Hg25 mi
9:00 AM71 °FSunny.5 mph57%29.94 "Hg25 mi
8:00 AM67 °FSunny.5 mph63%29.97 "Hg25 mi
7:00 AM64 °FSunny.3 mph72%29.99 "Hg16 mi
6:00 AM58 °FFog.1 mph85%30.00 "Hg16 mi
4:00 AM58 °FPassing clouds.1 mph89%30.03 "Hg11 mi
3:00 AM58 °FClear.1 mph87%30.04 "Hg12 mi
2:00 AM59 °FPassing clouds.1 mph84%30.05 "Hg12 mi
1:00 AM60 °FPassing clouds.1 mph84%30.06 "Hg19 mi
12:00 AM61 °FPassing clouds.1 mph78%30.07 "Hg28 mi
10:00 PM
Mon, Jul 6
65 °FPassing clouds.1 mph65%30.09 "Hg28 mi
9:00 PM70 °FPassing clouds.3 mph51%30.09 "Hg25 mi
8:00 PM72 °FPassing clouds.5 mph47%30.09 "Hg25 mi
7:00 PM73 °FScattered clouds.5 mph46%30.10 "Hg25 mi
6:00 PM74 °FScattered clouds.6 mph46%30.11 "Hg25 mi
4:00 PM72 °FScattered clouds.5 mph50%30.13 "Hg25 mi
3:00 PM72 °FScattered clouds.6 mph50%30.13 "Hg25 mi
2:00 PM70 °FMild.7 mph52%30.14 "HgN/A
1:00 PM69 °FScattered clouds.6 mph58%30.14 "Hg25 mi
Weather by CustomWeather, © 2015

See weather overviewHow to use our weather pages